www.pogodaiklimat.ru

Погода и климат >> Архив погоды >> Россия >> Северная Осетия >> Моздок


ПОГОДА в Моздоке

  • Прогноз погоды в Моздоке
  • Монитор погоды в Моздоке

АРХИВ ПОГОДЫ в Моздоке

Время (UTC), дата Ветер
(напр.,м/с)
 
Видим.   Явления Облачность Т
(С)
Тd
(С)
f
(%)
Тe
(С)
Тes
(С)
Комфортность P
(гПа)
Po
(гПа)
Тmin
(С)
Tmax
(С)
R
(мм)
R24
(мм)
S
(см)
18 17.06 Ю 3 10 км слаб. ливневой дождь {гроза} 10/10 600 м
[Cb cap]
+20.3 +18.6 90 +24 +24 комфорт 1011.0 995.2
21 17.06 С 1 20 км {ливн. осадки} 4/0
[Ac trans Ci sp]
+19.8 +19.4 98 +24 +24 комфорт 1009.7 994.0
00 18.06 штиль 0 20 км {ливн. осадки} 6/0
[Ac trans Ci sp]
+18.1 +18.1 100 +18 +18 1010.3 994.4
03 18.06 ЮВ 1 20 км 8/0
[Ac trans Ci sp]
+21.4 +17.5 78 +25 +27 комфорт 1011.2 995.5 +18.0 3
06 18.06 ЮЗ 1 20 км 3/0
[Ci sp]
+27.6 +15.8 49 +31 +44 душно 1010.9 995.5
09 18.06 ЮВ 1 20 км 3/3 1000 м
[Cu med, cong Ci fib]
+31.3 +12.0 31 +32 +48 жарко 1010.1 994.9
12 18.06 ЮВ 2 20 км 4/4 1000 м
[Cu med, cong]
+33.1 +10.6 25 +33 +40 жарко 1008.5 993.4
15 18.06 ЮВ 2 20 км 4/3 1000 м
[Cu med, cong Ac cuf Ci sp]
+32.5 +8.8 23 +31 +32 жарко 1008.3 993.2 +33.4
18 18.06 штиль 0 20 км 4/0
[Ac trans]
+24.6 +15.4 57 +28 +28 душно 1009.5 994.0
21 18.06 штиль 0 20 км ясно +20.9 +17.0 78 +24 +24 комфорт 1009.8 994.1
00 19.06 ЮЗ 1 20 км 3/0
[Ci fib]
+19.0 +16.3 84 +22 +22 комфорт 1009.6 993.8
03 19.06 З 1 20 км ясно +19.4 +15.7 79 +22 +24 комфорт 1010.0 994.2 +17.6
06 19.06 З 1 20 км ясно +29.6 +12.3 34 +30 +45 жарко 1009.2 994.0
09 19.06 ЮВ 2 20 км 3/3 1000 м
[Cu med, cong]
+33.5 +9.4 23 +33 +46 жарко 1008.2 993.2
12 19.06 ЮВ 3 20 км 3/3 1000 м
[Cu med, cong Ci fib]
+34.8 +7.6 19 +33 +40 жарко 1007.2 992.2
15 19.06 В 3 20 км 3/1 1000 м
[Cu hum Ci fib]
+34.0 +6.7 18 +32 +33 жарко 1007.0 992.0 +35.3
18 19.06 ЮВ 2 20 км 3/0
[Ac trans Ci sp]
+26.5 +9.1 33 +27 +27 жарко 1008.8 993.4
21 19.06 штиль 0 20 км 6/0
[Ci fib]
+22.2 +10.3 47 +24 +24 комфорт 1008.3 992.7
00 20.06 штиль 0 20 км 4/0
[Ci fib]
+18.6 +12.3 67 +19 +19 1008.3 992.5
03 20.06 штиль 0 20 км 4/0
[Ci fib]
+20.8 +12.6 59 +23 +25 комфорт 1009.2 993.5 +17.5
06 20.06 В 1 20 км 6/0
[Ac trans Ci fib]
+29.4 +10.3 31 +30 +41 жарко 1008.9 993.6
09 20.06 ЮВ 2 20 км 9/0
[Ac trans Cs]
+32.4 +9.6 25 +32 +45 жарко 1007.9 992.7
12 20.06 В 3 20 км 6/0
[Ac lent Ci sp]
+34.4 +3.9 15 +32 +38 жарко 1006.6 991.6
15 20.06 Ю 3 20 км 9/0
[Ac trans Cs]
+31.4 +10.4 27 +31 +32 жарко 1007.0 991.8 +34.8
18 20.06 штиль 0 20 км 9/9 600 м
[Sc]
+26.1 +13.1 45 +28 +28 жарко 1008.4 993.0
21 20.06 В 1 20 км 10/10 600 м
[Sc]
+24.0 +14.7 56 +27 +27 жарко 1008.4 992.9
00 21.06 В 1 20 км 10/10 600 м
[Sc]
+22.8 +15.1 62 +27 +27 душно 1009.3 993.7
03 21.06 В 1 20 км 9/9 600 м
[Sc]
+22.5 +15.5 65 +26 +27 жарко 1011.2 995.5 +22.2
06 21.06 В 1 20 км 10/10 600 м
[Sc]
+25.4 +18.1 64 +30 +30 душно 1012.1 996.6
09 21.06 З 1 20 км 10/10 1000 м
[Cu Sc]
+26.1 +15.5 52 +29 +29 жарко 1012.3 996.8
12 21.06 З 1 20 км 9/9 1000 м
[Cu Sc]
+27.7 +15.1 46 +30 +32 жарко 1011.9 996.5
15 21.06 СВ 2 20 км 9/9 1000 м
[Cu Sc]
+25.6 +15.1 52 +28 +29 жарко 1012.2 996.7 +28.1
18 21.06 штиль 0 20 км 9/9 600 м
[Sc]
+23.2 +16.7 67 +28 +28 душно 1012.6 997.0
21 21.06 штиль 0 20 км 3/0
[Ci sp]
+22.5 +17.3 72 +27 +27 душно 1012.8 997.1
00 22.06 штиль 0 20 км 6/0
[Ac trans Ci fib]
+19.1 +18.4 96 +21 +21 комфорт 1012.6 996.7
03 22.06 З 1 20 км 8/0
[Ac trans Ci fib]
+20.6 +17.2 81 +25 +26 комфорт 1013.6 997.8 +18.9
06 22.06 В 2 20 км 8/0
[Ac trans Ci fib]
+29.0 +14.7 42 +31 +40 жарко 1013.1 997.8
09 22.06 ЮВ 2 20 км 6/0
[Ac trans Ci fib]
+32.6 +10.0 25 +32 +47 жарко 1012.2 997.0
12 22.06 В 2 20 км 8/0
[Ac trans Ci fib]
+35.2 +9.9 21 +34 +41 очень
жарко
1010.5 995.5
15 22.06 В 2 20 км 6/1 1000 м
[Cu hum Ac trans Ci fib]
+34.2 +10.0 23 +33 +34 жарко 1010.3 995.2 +35.6
18 22.06 ЮВ 1 20 км 8/3 600 м
[Sc Ac trans Ci sp]
+27.7 +14.6 45 +30 +30 жарко 1011.7 996.3
21 22.06 СВ 1 20 км ясно +24.6 +15.0 55 +27 +27 жарко 1011.8 996.2
00 23.06 СЗ 1 20 км 8/0
[Ac trans]
+20.4 +15.9 75 +24 +24 комфорт 1012.1 996.3
03 23.06 З 1 20 км 8/0
[Ac trans Ci fib]
+20.6 +14.9 70 +25 +26 комфорт 1013.0 997.3 +19.0
06 23.06 ЮВ 1 20 км 1/0
[Ci fib]
+29.1 +16.5 47 +33 +47 очень
душно
1012.4 997.1
09 23.06 ЮВ 2 20 км 4/1 1000 м
[Cu med, cong Ci sp]
+34.1 +12.5 27 +34 +51 опасность
солнечного
удара
1010.6 995.6
12 23.06 Ю 2 20 км 8/3 1000 м
[Cu med, cong Ci]
+36.4 +11.7 23 +36 +43 очень
жарко
1009.8 994.8
15 23.06 Ю 1 20 км 8/3 1000 м
[Cu med, cong Ac lent Ci sp]
+33.1 +15.9 36 +36 +37 очень
душно
1009.1 994.0 +37.4
18 23.06 СЗ 1 20 км 4/0
[Ac trans Ci fib]
+28.2 +17.3 52 +32 +32 душно 1011.0 995.7
21 23.06 штиль 0 20 км 4/0
[Ci fib]
+24.0 +17.7 68 +28 +28 душно 1011.3 995.7
00 24.06 штиль 0 20 км 3/0
[Ci fib]
+22.5 +16.6 69 +27 +27 душно 1011.4 995.8
03 24.06 СЗ 2 20 км 6/0
[Ac trans Ci fib]
+23.5 +16.6 65 +27 +28 душно 1012.4 996.8 +21.6
06 24.06 СЗ 3 20 км 8/0
[Ac trans Ci fib]
+30.8 +14.6 37 +33 +40 душно 1012.0 996.8
09 24.06 СЗ 3 20 км 8/0
[Ac trans Ci fib]
+33.2 +13.2 30 +34 +46 очень
жарко
1011.1 996.0
12 24.06 СЗ 3 20 км 8/1 1000 м
[Cu med, cong Ac trans Ci sp]
+36.0 +10.8 22 +35 +41 очень
жарко
1010.0 995.0
15 24.06 ЮЗ 3 20 км 9/8 600 м
[Cb cap Ac trans]
+30.3 +14.5 38 +32 +32 жарко 1010.9 995.7 +36.8

 

Местоположение метеостанции Моздок (Северная Осетия, Россия): широта 43.73 долгота 44.67 высота над уровнем моря 136 м.

В архиве по умолчанию представлена погода в Моздоке за последнюю неделю. Архивные данные за месяц целиком и за предыдущие месяцы, начиная с января 2011 года, Вы можете получить, выбрав интересующий диапазон дат из раскрывающегося списка и нажав кнопку "Ввод!".


*Определитесь, кто Вы:
робот инопланетянин человек

Внимание! Время в таблицах - всемирное. Для получения местного времени необходимо прибавить поправку, которая равна 3 ч.

Смотрите также архив погоды в соседних городах и на ближайших метеорологических станциях:

Погода в Прохладный (Кабардино-Балкария, Россия) (50 км)
Погода в Наурской (Чечня, Россия) (53 км)
Погода в Рощино (Ставропольский край, Россия) (63 км)
Погода в Назрани (Ингушетия, Россия) (66 км)
Погода в Владикавказе (Северная Осетия, Россия) (78 км)
Погода в Алагире (Северная Осетия, Россия) (81 км)
Погода в Нальчике (Кабардино-Балкария, Россия) (87 км)
Погода в Грозном (Чечня, Россия) (100 км)
Погода в Зеленокумске (Ставропольский край, Россия) (100 км)
Погода в Терекли-Мектебе (Дагестан, Россия) (107 км)

Пояснения к столбцам:

Ветер - указаны скорость ветра в м/с - средняя за 10 мин, порывы в срок и между сроками (в фигурных скобках) и направление, откуда дует ветер: С - северный, СВ - северо-восточный, В - восточный, ЮВ - юго-восточный, Ю - южный, ЮЗ - юго-западный, З - западный, СЗ - северо-западный.
Видимость - горизонтальная дальность видимости в метрах или километрах. При видимости от 1 до 10 км при отсутствии осадков обычно наблюдается дымка, при ухудшении видимости до 1 км и менее - туман. В сухую погоду видимость может ухудшаться дымом, пылью или мглою.
Явления - указаны атмосферные явления, наблюдавшиеся в срок или в последний час перед сроком; фигурными скобками обозначены явления, наблюдавшиеся между сроками (за 1-3 часа до срока); квадратными скобками обозначены град или гололедные отложения с указанием их диаметра в мм.
Облачность - указаны через наклонную черту общая и нижняя облачность в баллах и высота нижней границы облаков в метрах; квадратными скобками обозначены формы облаков: Ci - перистые, Cs - перисто-слоистые, Cc - перисто-кучевые, Ac - высококучевые, As - высокослоистые, Sc - слоисто-кучевые, Ns - слоисто-дождевые, Cu - кучевые, Cb - кучево-дождевые. Подробнее классификацию облаков см. в Атласе облаков (PDF).
T - Температура воздуха - температура, измеренная на высоте 2 м над землей.
Td - Температура точки росы - температура, при понижении до которой содержащийся в воздухе водяной пар достигнет насыщения.
f - Относительная влажность воздуха - влажноcть воздуха, измеренная на высоте 2 м над землей.
Te - Эффективная температура - температура, которую ощущает одетый по сезону человек в тени. Характеристика душности погоды. При расчете учитывается влияние влажности воздуха и скорости ветра на теплоощущения человека.
Tes - Эффективная температура на солнце - температура, которую ощущает человек, с поправкой на солнечный нагрев. Характеристика знойности погоды. Зависит от высоты солнца над горизонтом, облачности и скорости ветра. Ночью, в пасмурную погоду, а также при ветре 12 м/с и более поправка равна нулю.
P - Атмосферное давление - приведенное к уровню моря атмосферное давление.
Po - Атмосферное давление - измеренное на уровне метеостанции атмосферное давление.
Tmin - Минимальная температура - минимум температуры воздуха на высоте 2 м над землей.
Tmax - Максимальная температура - максимум температуры воздуха на высоте 2 м над землей.
R - Количество осадков - Количество выпавших осадков за период времени, мм. При наведении курсора мыши на число - период времени, за который выпало указанное количество осадков.
R24 - Количество осадков - Количество выпавших осадков за 24 часа, мм.
S - Снежный покров - Высота снежного покрова, см. При наведении курсора мыши на число - состояние снежного покрова и степень покрытия местности в баллах.